Tracking 27122 objects as of 25-Mar-2023
HD Live streaming from Space Station
objects crossing your sky now

STARLINK-4784

Track STARLINK-4784 now!
10-day predictions
STARLINK-4784 is classified as:


NORAD ID: 53839
Int'l Code: 2022-114X
Perigee: 546.1 km
Apogee: 547.8 km
Inclination: 53.2 °
Period: 95.4 minutes
Semi major axis: 6917 km
RCS: Unknown
Launch date: September 19, 2022
Source: United States (US)
Launch site: AIR FORCE EASTERN TEST RANGE (AFETR)
Your satellite tracking list
Your tracking list is empty




NASA's NSSDC Master Catalog

Two Line Element Set (TLE):
1 53839U 22114X   23083.75449318 -.00002555  00000-0 -14256-3 0  9995
2 53839  53.2175 106.8742 0001194 118.6597 241.4515 15.08823778 29780
Source of the keplerian elements: AFSPC